Погода в Лазурном

Украина / Херсонская область     46°04′51″N   32°31′12″E
темп.,
°C
ветер,
м/с
пор.,
м/с
влажн.,
%
обл.,
%
осадки,
мм/ч
давл.,
гПа
погр.,
м
15 апреля, чт
чт1500:00+8ю71196100 0.4 1013262
03:00+8ююз71194100 0.6 1012243
06:00+8ююз9129178 0.0 1012403
09:00+8ююз9119082 0.0 1013507
12:00+8юз8109499 0.2 1014375
15:00+7зюз9129094 0.2 1015660
18:00+7зюз9108995 0.0 1015767
21:00+7зюз898819 0.1 1015515
16 апреля, пт
пт1600:00+7зюз81189100 0.0 1016608
03:00+8юз71088100 0.0 1016381
06:00+8зюз5786100 0.0 1016203
09:00+7з5688100 0.1 1017289
12:00+7з78859 0.0 1018389
15:00+7з78815 0.0 1018509
18:00+8зюз68776 0.0 1019566
21:00+8зюз67825 0.0 1020441
17 апреля, сб
сб1700:00+8з678445 0.0 1021401
03:00+7сз35825 0.1 1021277
06:00+7с117955 0.0 1022101
09:00+7ююв1176100 0.0 1023122
12:00+8ююз22756 0.0 1023204
15:00+8ююз11715 0.0 1023122
18:00+9зсз116770 0.0 102269
21:00+9вюв3367100 0.0 102122
18 апреля, вс
вс1800:00+9в5780100 0.0 1020126
03:00+8всв71083100 0.3 1020269
06:00+8всв9138399 0.1 1019384
09:00+8всв9148299 0.1 1019458
12:00+9в10147990 0.1 1019428
15:00+9в91381100 0.2 1018296
18:00+9в91481100 0.0 1018284
21:00+9в81479100 0.1 1018259
19 апреля, пн
пн1900:00+9в71084100 0.0 1017235
03:00+9в678956 0.0 1015135
06:00+9в5693100 0.0 1015119
09:00+9вюв5693100 0.0 1014120
12:00+10в6993100 0.0 1012102
15:00+11в4498100 1.8 101034
18:00+11всв91594100 0.9 1007193
21:00+11в132191100 1.3 1001250